Fredericksburg, TX

9:16 PM CST on February 19, 2017 (GMT -0600)
Fredericksburg

Weather History for KT82 - January, 2013

Change the Weather History Date:

Saturday, January 26, 2013

  Actual Average (KSAT) Record (KSAT)
Temperature  
Mean Temperature 55 °F -  
Max Temperature 63 °F 65 °F 87 °F (1975)
Min Temperature 47 °F 39 °F 20 °F (1897)
Degree Days  
Heating Degree Days 10    
Growing Degree Days 5 (Base 50)    
Moisture  
Dew Point 53 °F    
Average Humidity 94    
Maximum Humidity 100    
Minimum Humidity 83    
Precipitation  
Precipitation 0.00 in - - ()
Sea Level Pressure  
Sea Level Pressure 30.12 in    
Wind  
Wind Speed 4 mph (East)    
Max Wind Speed 9 mph    
Max Gust Speed -    
Visibility 7 miles    
Events Fog    
Averages and records for this station are not official NWS values.
T = Trace of Precipitation, MM = Missing Value Source: NWS Daily Summary

Daily Weather History Graph

Daily Weather History Graph

Search for Another Location

Airport or City:

Trip Planner

Search our weather history database for the weather conditions in past years. The results will help you decide how hot, cold, wet, or windy it might be!

Date:

Astronomy

Jan. 26, 2013 Rise Set
Actual Time 7:29 AM CST 6:07 PM CST
Civil Twilight 7:03 AM CST 6:32 PM CST
Nautical Twilight 6:35 AM CST 7:01 PM CST
Astronomical Twilight 6:06 AM CST 7:30 PM CST
Moon 6:00 PM CST (1/26) 6:50 AM CST (1/26)
Length of Visible Light 11h 29m
Length of Day
10h 38m
Full, 100% of the Moon is Illuminated
Jan 26
Full
Jan 26
Full
Feb 3
Last Quarter
Feb 10
New
Feb 17
First Quarter

Hourly Weather History & Observations

Time (CST) Temp. Dew Point Humidity Pressure Visibility Wind Dir Wind Speed Gust Speed Precip Events Conditions
12:15 AM 53.6 °F 50.2 °F 88% 30.15 in 10.0 mi NE 4.6 mph - N/A   Clear
12:35 AM 52.5 °F 49.3 °F 89% 30.16 in 10.0 mi NE 4.6 mph - N/A   Clear
12:55 AM 51.8 °F 48.9 °F 90% 30.16 in 10.0 mi NNE 4.6 mph - N/A   Scattered Clouds
1:15 AM 52.0 °F 48.2 °F 87% 30.16 in 10.0 mi NE 5.8 mph - N/A   Overcast
1:35 AM 52.2 °F 47.8 °F 85% 30.16 in 10.0 mi NE 4.6 mph - N/A   Overcast
1:55 AM 51.8 °F 47.3 °F 85% 30.14 in 10.0 mi East 3.5 mph - N/A   Overcast
2:15 AM 51.8 °F 46.8 °F 83% 30.14 in 10.0 mi ENE 3.5 mph - N/A   Overcast
2:35 AM 51.8 °F 46.8 °F 83% 30.14 in 10.0 mi East 3.5 mph - N/A   Overcast
2:55 AM 51.6 °F 46.8 °F 83% 30.14 in 10.0 mi ENE 3.5 mph - N/A   Overcast
3:15 AM 51.8 °F 46.9 °F 83% 30.13 in 10.0 mi NE 4.6 mph - N/A   Overcast
3:35 AM 51.8 °F 47.5 °F 85% 30.13 in 10.0 mi NE 3.5 mph - N/A   Overcast
3:55 AM 51.6 °F 48.2 °F 88% 30.13 in 7.0 mi NE 3.5 mph - N/A   Overcast
4:15 AM 51.3 °F 48.6 °F 90% 30.13 in 7.0 mi Calm Calm - N/A   Overcast
4:35 AM 51.1 °F 48.4 °F 90% 30.12 in 7.0 mi ESE 3.5 mph - N/A   Overcast
4:55 AM 50.5 °F 48.4 °F 92% 30.12 in 7.0 mi Calm Calm - N/A   Overcast
5:15 AM 50.2 °F 48.7 °F 95% 30.12 in 5.0 mi East 4.6 mph - N/A   Overcast
5:35 AM 49.6 °F 49.1 °F 98% 30.12 in 4.0 mi East 3.5 mph - N/A   Overcast
5:55 AM 49.1 °F 49.1 °F 100% 30.13 in 3.0 mi Calm Calm - N/A   Overcast
6:15 AM 48.7 °F 48.7 °F 100% 30.13 in 2.5 mi ENE 4.6 mph - N/A   Overcast
6:35 AM 48.4 °F 48.4 °F 100% 30.14 in 1.8 mi NE 4.6 mph - N/A   Overcast
7:15 AM 48.2 °F 48.2 °F 100% 30.15 in 1.8 mi Calm Calm - N/A   Overcast
7:35 AM 48.0 °F 48.0 °F 100% 30.16 in 1.5 mi Calm Calm - N/A   Overcast
7:55 AM 47.8 °F 47.8 °F 100% 30.16 in 1.2 mi Calm Calm - N/A   Overcast
8:15 AM 47.8 °F 47.8 °F 100% 30.16 in 0.8 mi ENE 3.5 mph - N/A   Overcast
8:35 AM 48.2 °F 48.2 °F 100% 30.17 in 0.2 mi Calm Calm - N/A Fog Fog
8:55 AM 48.2 °F 48.2 °F 100% 30.17 in 0.5 mi Calm Calm - N/A Fog Fog
9:15 AM 48.7 °F 48.7 °F 100% 30.16 in 0.8 mi East 3.5 mph - N/A   Overcast
9:35 AM 49.1 °F 49.1 °F 100% 30.17 in 1.0 mi Calm Calm - N/A   Overcast
9:55 AM 49.5 °F 49.5 °F 100% 30.18 in 1.0 mi East 3.5 mph - N/A   Overcast
10:15 AM 50.0 °F 50.0 °F 100% 30.18 in 1.0 mi East 3.5 mph - N/A   Overcast
10:35 AM 50.7 °F 50.7 °F 100% 30.17 in 1.2 mi East 4.6 mph - N/A   Overcast
10:55 AM 51.1 °F 51.1 °F 100% 30.17 in 1.5 mi East 4.6 mph - N/A   Overcast
11:15 AM 51.8 °F 51.8 °F 100% 30.17 in 2.5 mi ENE 3.5 mph - N/A   Overcast
11:35 AM 52.3 °F 52.3 °F 100% 30.17 in 3.0 mi East 3.5 mph - N/A   Overcast
11:55 AM 54.0 °F 53.8 °F 99% 30.16 in 4.0 mi East 3.5 mph - N/A   Overcast
12:15 PM 55.4 °F 54.1 °F 96% 30.14 in 7.0 mi East 3.5 mph - N/A   Overcast
12:35 PM 56.3 °F 54.1 °F 92% 30.13 in 7.0 mi East 4.6 mph - N/A   Overcast
12:55 PM 57.0 °F 54.5 °F 91% 30.12 in 10.0 mi East 4.6 mph - N/A   Overcast
1:15 PM 57.6 °F 55.0 °F 91% 30.11 in 7.0 mi East 4.6 mph - N/A   Overcast
1:35 PM 57.7 °F 55.0 °F 91% 30.11 in 7.0 mi ESE 4.6 mph - N/A   Overcast
1:55 PM 58.5 °F 55.6 °F 90% 30.11 in 10.0 mi East 4.6 mph - N/A   Overcast
2:15 PM 59.2 °F 56.3 °F 90% 30.09 in 10.0 mi East 5.8 mph - N/A   Overcast
2:35 PM 59.0 °F 56.5 °F 91% 30.09 in 7.0 mi ESE 4.6 mph - N/A   Overcast
2:55 PM 59.0 °F 56.8 °F 93% 30.09 in 7.0 mi ESE 3.5 mph - N/A   Overcast
3:15 PM 60.8 °F 59.0 °F 94% 30.08 in 10.0 mi SSE 6.9 mph - N/A   Overcast
3:35 PM 60.6 °F 59.0 °F 94% 30.08 in 10.0 mi SSE 8.1 mph - N/A   Overcast
3:55 PM 60.8 °F 58.6 °F 93% 30.08 in 10.0 mi South 5.8 mph - N/A   Overcast
4:15 PM 62.2 °F 58.3 °F 87% 30.08 in 10.0 mi South 6.9 mph - N/A   Overcast
4:35 PM 62.6 °F 58.5 °F 86% 30.07 in 10.0 mi SE 6.9 mph - N/A   Overcast
4:55 PM 62.2 °F 58.5 °F 87% 30.08 in 10.0 mi SSE 3.5 mph - N/A   Mostly Cloudy
5:15 PM 63.3 °F 58.8 °F 85% 30.07 in 10.0 mi SSE 3.5 mph - N/A   Scattered Clouds
5:35 PM 62.6 °F 58.5 °F 86% 30.07 in 10.0 mi SSE 4.6 mph - N/A   Clear
5:55 PM 61.7 °F 58.5 °F 89% 30.07 in 10.0 mi Calm Calm - N/A   Clear
6:15 PM 60.3 °F 58.3 °F 93% 30.07 in 10.0 mi Calm Calm - N/A   Clear
6:35 PM 59.5 °F 58.3 °F 96% 30.07 in 10.0 mi Calm Calm - N/A   Clear
6:55 PM 59.2 °F 58.3 °F 97% 30.08 in 10.0 mi Calm Calm - N/A   Clear
7:15 PM 59.4 °F 58.6 °F 97% 30.08 in 10.0 mi Calm Calm - N/A   Clear
7:35 PM 59.0 °F 58.1 °F 97% 30.08 in 10.0 mi Calm Calm - N/A   Clear
7:55 PM 57.6 °F 57.6 °F 100% 30.08 in 7.0 mi East 3.5 mph - N/A   Clear
8:15 PM 57.4 °F 57.2 °F 99% 30.09 in 10.0 mi Calm Calm - N/A   Clear
8:35 PM 56.8 °F 56.8 °F 100% 30.09 in 10.0 mi East 4.6 mph - N/A   Clear
8:55 PM 56.3 °F 56.3 °F 100% 30.09 in 7.0 mi East 4.6 mph - N/A   Clear
9:15 PM 55.9 °F 55.9 °F 100% 30.09 in 7.0 mi East 4.6 mph - N/A   Clear
9:35 PM 55.6 °F 55.6 °F 100% 30.10 in 7.0 mi East 3.5 mph - N/A   Clear
9:55 PM 55.4 °F 55.4 °F 100% 30.09 in 5.0 mi Calm Calm - N/A   Clear
10:15 PM 54.9 °F 54.9 °F 100% 30.10 in 5.0 mi Calm Calm - N/A   Clear
10:35 PM 54.5 °F 54.5 °F 100% 30.10 in 4.0 mi Calm Calm - N/A   Clear
10:55 PM 55.0 °F 55.0 °F 100% 30.10 in 7.0 mi SE 3.5 mph - N/A   Clear
11:15 PM 58.1 °F 57.7 °F 99% 30.10 in 10.0 mi SSE 9.2 mph - N/A   Scattered Clouds
11:35 PM 59.0 °F 58.1 °F 97% 30.10 in 10.0 mi SSE 5.8 mph - N/A   Overcast
11:55 PM 59.0 °F 58.1 °F 97% 30.10 in 10.0 mi SSE 8.1 mph - N/A   Overcast